www.pogodaiklimat.ru

Погода и климат >> Архив погоды >> Германия >> Hamburg


АРХИВ ПОГОДЫ в Hamburg

Время (UTC), дата Ветер
(напр.,м/с)
 
Видим.   Явления Облачность Т
(С)
Тd
(С)
f
(%)
Тe
(С)
Тes
(С)
Комфортность P
(гПа)
Po
(гПа)
Тmin
(С)
Tmax
(С)
R
(мм)
R24
(мм)
S
(см)
04 8.08 ЮВ 3 40 км 5/0
[Ci]
+22.2 +13.2 57 +25 +25 комфорт 1005.9 1004.2
05 8.08 Ю 2 40 км 9/0
[Ac trans Ci sp]
+23.2 +14.1 57 +27 +27 душно 1006.8 1005.1
06 8.08 ЮЗ 2 40 км 9/0
[Ac trans Ci sp]
+24.3 +14.5 54 +27 +28 жарко 1007.3 1005.6 +21.7 +34.1
07 8.08 Ю 1 40 км 10/0
[Ac trans Cs]
+25.3 +13.9 49 +28 +31 жарко 1007.4 1005.7
08 8.08 ЮЗ 6 40 км 9/0
[Ac As Cs]
+24.9 +14.7 53 +28 +29 жарко 1008.7 1007.0
09 8.08 С 1 40 км 9/0
[Ac trans Ci sp]
+27.5 +15.2 47 +30 +39 жарко 1008.2 1006.5
10 8.08 В 2 45 км 9/0
[Ac As]
+29.1 +14.6 41 +31 +36 жарко 1007.8 1006.1
11 8.08 ЮВ 2 40 км 8/0
[Ac As Ci sp]
+30.2 +13.7 36 +32 +40 жарко 1008.3 1006.6
12 8.08 ЮЗ 3 40 км 9/3 1500 м
[Cu med, cong Ac trans Ci sp]
+30.7 +12.5 33 +32 +36 жарко 1009.1 1007.4
13 8.08 ЮЗ 7 40 км 8/1 1500 м
[Cu med, cong Ac trans Ci sp]
+31.1 +14.3 36 +33 +35 душно 1009.6 1007.9
14 8.08 ЮЗ 9 40 км 9/1 1500 м
[Cu med, cong Ac trans Ci sp]
+30.1 +14.7 39 +32 +33 жарко 1010.2 1008.5
15 8.08 ЮЗ 6 40 км 9/1 1500 м
[Cu med, cong Ac trans Ci sp]
+29.5 +14.6 40 +32 +33 душно 1010.5 1008.8
16 8.08 ЮЗ 7 40 км 9/1 1500 м
[Cu med, cong Ac trans Ci sp]
+28.2 +14.4 43 +30 +31 жарко 1010.7 1009.0
17 8.08 З 10 35 км 9/3 1500 м
[Cu med, cong Ac trans Ci sp]
+26.0 +16.4 55 +29 +29 душно 1011.5 1009.8
18 8.08 З 7 35 км 9/1 1000 м
[Cu hum Ac trans Ci sp]
+24.6 +16.6 61 +28 +28 душно 1012.3 1010.6 +24.4 +32.1
19 8.08 СЗ 6 30 км 8/1 870 м
[Cu hum Ci fib]
+23.2 +16.3 65 +28 +28 душно 1013.2 1011.5
20 8.08 СЗ 4 30 км 8/1 840 м
[Cu hum Ci fib]
+21.3 +17.3 78 +25 +25 комфорт 1014.4 1012.7
21 8.08 СЗ 3 25 км 6/1 1500 м
[Sc Ci fib]
+20.1 +16.3 79 +23 +23 комфорт 1014.9 1013.1
22 8.08 СЗ 1 30 км 5/1 1500 м
[Sc Ci fib]
+19.4 +14.7 74 +22 +22 комфорт 1015.3 1013.5
23 8.08 СЗ 1 30 км 8/3 1000 м
[Sc Ci fib]
+18.0 +14.5 80 +19 +19 тепло 1015.6 1013.8
00 9.08 штиль 0 25 км 8/5 600 м
[Sc Ci fib]
+18.0 +14.6 81 +18 +18 тепло 1015.9 1014.1
01 9.08 С 1 30 км 4/1 1000 м
[Sc Ci fib]
+16.2 +14.4 89 +17 +17 тепло 1015.8 1014.0
02 9.08 штиль 0 25 км 5/4 900 м
[Sc Ci fib]
+16.3 +14.2 87 +16 +16 по сезону 1015.7 1013.9
03 9.08 штиль 0 20 км местами туман поземный 4/1 900 м
[Sc Ci fib]
+15.4 +13.7 90 +15 +15 по сезону 1015.9 1014.1
04 9.08 СВ 1 25 км местами туман поземный 6/4 900 м
[Sc Ci fib]
+15.4 +14.2 93 +16 +16 тепло 1016.2 1014.4
05 9.08 В 1 30 км 3/0
[Ac trans Ci fib]
+16.9 +14.8 87 +18 +18 тепло 1016.1 1014.3
06 9.08 ЮВ 3 40 км 3/0
[Ac trans Ci fib]
+19.4 +14.2 72 +21 +23 комфорт 1016.1 1014.3 +15.0 +24.6
07 9.08 ЮВ 3 45 км 3/1 1500 м
[Sc Ac trans Ci fib]
+21.1 +12.3 57 +23 +26 комфорт 1016.4 1014.6
08 9.08 В 3 45 км 4/3 1500 м
[Sc Ci fib]
+22.9 +12.6 52 +26 +30 жарко 1016.1 1014.4
09 9.08 В 4 45 км 3/0
[Ac trans Ci fib]
+23.9 +12.9 50 +26 +32 жарко 1015.5 1013.8
10 9.08 ЮВ 3 45 км 4/0
[Ac cast Ci fib]
+26.1 +13.1 45 +28 +36 жарко 1015.1 1013.4
11 9.08 Ю 5 45 км 9/4 1500 м
[Sc Ac As Ci fib]
+26.2 +13.0 44 +28 +31 жарко 1014.4 1012.7
12 9.08 В 4 45 км в посл. час ливневой дождь 9/3 2000 м
[Sc Ac As]
+26.1 +14.1 48 +28 +31 жарко 1013.4 1011.7 0.0
13 9.08 В 3 40 км в посл. час ливневой дождь 8/3 1500 м
[Sc Ac cast Ci fib]
+28.6 +14.2 41 +31 +35 жарко 1012.2 1010.5
14 9.08 В 6 45 км 9/3 1500 м
[Cu Sc Ac inh Ci fib]
+28.8 +14.3 41 +31 +32 жарко 1011.0 1009.3
15 9.08 В 7 40 км 5/1 1500 м
[Cu med, cong Ac inh Ci fib]
+23.4 +14.3 57 +27 +27 душно 1009.3 1007.6 0.0
16 9.08 В 7 40 км 8/3 1500 м
[Cu med, cong Ac cast Ci sp]
+30.5 +14.4 38 +33 +33 душно 1008.0 1006.3
17 9.08 В 6 40 км зарница 9/4 1500 м
[Cb cap Ac cast Ci ing]
+30.2 +14.9 39 +32 +33 жарко 1006.8 1005.1
18 9.08 ЮВ 8 20 км гроза, ливневой дождь 9/9 300 м
[Cb cap]
+20.0 +17.2 84 +22 +22 комфорт 1007.2 1005.5 +19.5 +31.5 8
19 9.08 ЮВ 4 40 км в посл. час гроза {ливн. осадки} 9/4 750 м
[Cb cap Ac cuf Ci sp]
+20.9 +18.1 84 +25 +25 комфорт 1007.5 1005.8
20 9.08 ЮВ 4 40 км 9/1 210 м
[St Ac trans Ci ing]
+20.1 +18.5 91 +23 +23 комфорт 1007.6 1005.9
21 9.08 ЮВ 5 30 км {гроза, ливн. осадки} 9/0
[Ac As Ci fib]
+20.1 +18.3 89 +23 +23 комфорт 1007.9 1006.2 0.0
22 9.08 ЮВ 5 30 км 6/0
[Ci fib]
+20.3 +18.2 88 +24 +24 комфорт 1007.9 1006.2
23 9.08 Ю 6 40 км 1/0
[Ac trans Ci fib]
+20.8 +17.2 80 +24 +24 комфорт 1008.4 1006.7
00 10.08 ЮЗ 11 50 км {гроза, ливн. осадки} 1/1 600 м
[Cu hum Ac trans]
+19.9 +13.9 68 +21 +21 комфорт 1009.1 1007.3 0.0
01 10.08 ЮЗ 9 50 км 4/4 900 м
[Cu Sc]
+19.7 +13.5 67 +21 +21 комфорт 1009.9 1008.1
02 10.08 ЮЗ 9 50 км 9/9 840 м
[Cu Sc]
+19.4 +13.4 68 +20 +20 тепло 1010.4 1008.6
03 10.08 ЮЗ 10 50 км 9/9 800 м
[Cu Sc]
+18.7 +12.7 68 +18 +18 тепло 1011.2 1009.4
04 10.08 ЮЗ 9 50 км 9/9 660 м
[Cu Sc]
+18.1 +13.2 73 +17 +17 тепло 1012.3 1010.5
05 10.08 ЮЗ 9 50 км 9/8 540 м
[Cu med, cong]
+17.4 +12.7 74 +16 +16 по сезону 1013.6 1011.8
06 10.08 ЮЗ 9 60 км 8/8 600 м
[Cu med, cong]
+16.8 +11.7 72 +15 +15 по сезону 1015.3 1013.5 +16.8 +21.2 0.0
07 10.08 З 7 60 км 8/8 700 м
[Cu med, cong]
+17.3 +11.2 67 +16 +17 прохладно 1016.3 1014.5
08 10.08 З 9 55 км 6/6 800 м
[Cu med, cong]
+17.5 +10.5 63 +16 +17 прохладно 1017.3 1015.5
09 10.08 З 8 55 км 6/6 1000 м
[Cu med, cong]
+18.5 +9.3 55 +18 +19 по сезону 1018.3 1016.5
10 10.08 З 7 55 км в посл. час ливневой дождь 6/6 900 м
[Cb cap]
+20.3 +9.5 50 +21 +23 комфорт 1019.2 1017.4
11 10.08 З 7 55 км 6/6 1350 м
[Cu med, cong]
+19.2 +8.6 50 +19 +21 холодно 1019.8 1018.0
12 10.08 З 6 50 км {ливн. осадки} 5/5 1380 м
[Cu Sc]
+21.1 +8.8 45 +22 +25 комфорт 1019.8 1018.0 0.0
13 10.08 ЮЗ 7 50 км 4/4 1500 м
[Cu Sc]
+22.0 +7.6 39 +23 +25 комфорт 1019.9 1018.1
14 10.08 ЮЗ 8 50 км 5/4 1500 м
[Cu med, cong Ac trans]
+22.7 +6.3 35 +23 +24 комфорт 1019.7 1017.9
15 10.08 ЮЗ 5 50 км в посл. час ливневой дождь 6/3 1500 м
[Cb calv Ac As]
+20.6 +6.5 40 +22 +23 комфорт 1020.2 1018.4 0.0
16 10.08 СЗ 7 50 км осадки на расстоянии 5/3 1500 м
[Cb calv Ac As]
+18.9 +9.3 54 +19 +20 прохладно 1020.5 1018.7
17 10.08 СЗ 3 50 км в посл. час ливневой дождь 4/3 1500 м
[Cu med, cong Ac As]
+19.0 +9.5 54 +20 +21 по сезону 1020.3 1018.5
18 10.08 СЗ 3 50 км слабый ливневой дождь 6/3 1500 м
[Cu med, cong Ac As]
+19.1 +9.0 52 +20 +20 по сезону 1020.3 1018.5 +16.7 +23.5 0.0
19 10.08 С 2 50 км в посл. час ливневой дождь 5/0
[Ac trans]
+17.1 +9.2 60 +17 +17 по сезону 1020.3 1018.5
20 10.08 В 2 45 км 3/0
[Ac trans]
+15.4 +9.4 67 +15 +15 прохладно 1020.2 1018.4
21 10.08 В 2 45 км {ливн. осадки} ясно +15.9 +9.7 67 +16 +16 по сезону 1019.8 1018.0 0.0
22 10.08 ЮВ 3-5
{6}
45 км ясно +15.1 +10.0 72 +14 +14 по сезону 1019.4 1017.6
23 10.08 ЮВ 4-5
{5}
45 км ясно +15.3 +10.5 73 +14 +14 по сезону 1019.1 1017.3
00 11.08 ЮВ 3 45 км {ливн. осадки} 4/0
[Ac und]
+14.4 +10.0 75 +14 +14 по сезону 1018.3 1016.5 0.0
01 11.08 ЮВ 5 45 км 4/0
[Ac trans]
+15.0 +9.9 72 +14 +14 по сезону 1017.4 1015.6
02 11.08 Ю 5 45 км 5/1 1500 м
[Sc Ac trans]
+15.1 +9.0 67 +14 +14 по сезону 1016.9 1015.1
03 11.08 ЮЗ 3 45 км 6/3 1500 м
[Sc Ac trans]
+15.4 +7.6 60 +15 +15 по сезону 1017.2 1015.4
04 11.08 З 5 45 км 9/3 1500 м
[Sc Ac As]
+15.5 +9.5 67 +14 +14 по сезону 1016.9 1015.1
05 11.08 ЮЗ 4 45 км в посл. час дождь 9/6 600 м
[Sc Ac As]
+12.9 +10.7 86 +11 +11 прохладно 1017.3 1015.5
06 11.08 ЮЗ 5 70 км в посл. час дождь 8/6 600 м
[Sc Ac As]
+13.1 +10.6 85 +11 +11 прохладно 1017.6 1015.8 +12.8 +19.2 1
07 11.08 ЮЗ 6 65 км 6/6 450 м
[Cu hum]
+13.6 +10.6 82 +11 +12 очень
холодно
1017.4 1015.6
08 11.08 ЮЗ 8 55 км 6/6 480 м
[Cu med, cong]
+16.0 +11.4 74 +14 +15 холодно 1017.5 1015.7
09 11.08 ЮЗ 8 55 км 8/8 600 м
[Cu med, cong]
+16.4 +9.7 65 +15 +15 прохладно 1017.4 1015.6
10 11.08 ЮЗ 8 30 км слабый дождь 10/6 900 м
[Cu med, cong Ac As]
+16.6 +8.7 60 +15 +15 очень
холодно
1017.3 1015.5
11 11.08 ЮЗ 8 40 км слабый ливневой дождь 8/6 540 м
[Cb calv Ac As Ci fib]
+15.6 +10.8 73 +14 +14 очень
холодно
1017.7 1015.9
12 11.08 З 6 40 км слабый ливневой дождь 9/8 700 м
[Cb cap Ci fib]
+16.3 +10.7 69 +15 +16 очень
холодно
1017.6 1015.8 1
13 11.08 СЗ 4 45 км в посл. час ливневой дождь 8/6 700 м
[Cb cap Ci ing]
+14.8 +12.1 84 +14 +16 очень
холодно
1017.8 1016.0
14 11.08 З 5 50 км в посл. час ливневой дождь 6/6 600 м
[Cb calv Ci fib]
+17.7 +12.9 73 +17 +19 холодно 1017.9 1016.1
15 11.08 З 8 20 км гроза, ливневой дождь 8/8 600 м
[Cb cap]
+13.6 +11.1 85 +11 +11 очень
холодно
1018.7 1016.9 12
16 11.08 З 5 50 км в посл. час гроза {ливн. осадки} 4/3 750 м
[Cb cap Ci sp]
+17.2 +12.0 71 +17 +18 холодно 1018.7 1016.9
17 11.08 З 5 50 км осадки на расстоянии 4/4 900 м
[Cb calv Ci fib]
+17.5 +11.0 66 +17 +17 прохладно 1019.0 1017.2
18 11.08 ЮЗ 5 50 км {гроза, ливн. осадки} 4/4 1000 м
[Cb cap]
+17.2 +11.2 68 +17 +17 прохладно 1019.3 1017.5 +12.7 +18.1 13
19 11.08 З 4 50 км 3/3 1140 м
[Cb cap]
+15.7 +11.3 75 +15 +15 прохладно 1019.6 1017.8
20 11.08 ЮЗ 3 50 км 3/1 1200 м
[Cu med, cong Ac trans]
+14.3 +11.3 82 +13 +13 прохладно 1020.1 1018.3
21 11.08 ЮЗ 3 50 км 3/0
[Ac trans]
+13.5 +11.1 85 +12 +12 холодно 1020.1 1018.3
22 11.08 З 2 45 км 6/0
[Ac trans]
+14.4 +11.4 82 +14 +14 по сезону 1019.9 1018.1
23 11.08 ЮЗ 2 45 км 4/0
[Ac trans]
+12.7 +11.0 89 +12 +12 по сезону 1019.7 1017.9
00 12.08 ЮЗ 3 40 км 8/0
[Ac trans]
+14.0 +11.5 85 +13 +13 по сезону 1019.4 1017.6
01 12.08 ЮЗ 3 40 км 5/0
[Ac trans]
+13.5 +10.7 83 +12 +12 по сезону 1019.0 1017.2
02 12.08 ЮЗ 3 40 км 6/0
[Ci]
+12.0 +10.4 90 +10 +10 прохладно 1018.7 1016.9
03 12.08 ЮЗ 3 40 км 4/0
[Ci fib]
+12.0 +10.2 89 +10 +10 холодно 1018.5 1016.7
04 12.08 ЮЗ 3 35 км 10/0
[Ac trans Cs]
+11.7 +10.0 89 +10 +10 прохладно 1018.4 1016.6
05 12.08 ЮЗ 3 35 км 9/0
[Ac trans Ci sp]
+12.0 +10.3 89 +10 +10 прохладно 1018.3 1016.5
06 12.08 ЮЗ 3 40 км 9/0
[Ac trans Ci sp]
+14.0 +10.8 81 +13 +14 прохладно 1018.0 1016.2 +11.4 +17.2
07 12.08 ЮЗ 4 50 км 8/0
[Ac trans Ci sp]
+15.6 +10.2 70 +15 +17 прохладно 1017.8 1016.0
08 12.08 ЮЗ 4 50 км 8/1 750 м
[Cu hum Ac As Ci fib]
+17.6 +10.4 63 +17 +20 по сезону 1017.5 1015.7
09 12.08 ЮЗ 5 50 км 9/1 1000 м
[Cu hum Ac trans]
+18.2 +10.1 59 +18 +20 по сезону 1017.1 1015.3
10 12.08 ЮЗ 5 50 км 9/1 1500 м
[Cu hum Ac trans]
+19.9 +8.5 48 +21 +24 комфорт 1016.6 1014.8
11 12.08 Ю 4 50 км 9/9 1350 м
[Cu Sc]
+20.6 +9.1 48 +22 +23 комфорт 1016.0 1014.2
12 12.08 ЮЗ 4 45 км 10/9 1350 м
[Sc]
+19.6 +9.0 50 +21 +21 комфорт 1015.8 1014.0
13 12.08 ЮЗ 6 45 км 10/9 1350 м
[Sc]
+20.3 +9.3 49 +21 +22 комфорт 1015.5 1013.7
14 12.08 ЮЗ 4 45 км 10/9 1230 м
[Sc]
+20.4 +9.2 49 +22 +22 комфорт 1014.6 1012.8
15 12.08 ЮЗ 4 45 км 10/9 1200 м
[Sc]
+20.9 +10.4 51 +23 +23 комфорт 1013.9 1012.1
16 12.08 ЮЗ 4 50 км 10/9 1260 м
[Sc]
+21.3 +10.4 50 +23 +23 комфорт 1013.3 1011.5
17 12.08 Ю 4 50 км 9/9 1500 м
[Sc]
+22.2 +10.7 48 +24 +24 комфорт 1012.3 1010.6
18 12.08 Ю 3 50 км 9/4 2000 м
[Sc Ac trans Ci sp]
+21.7 +10.9 50 +24 +24 комфорт 1011.6 1009.9 +14.0 +22.5
19 12.08 ЮВ 3 60 км 9/9 2000 м
[Sc]
+21.3 +10.9 51 +23 +23 комфорт 1011.3 1009.6
20 12.08 ЮВ 3 60 км 9/9 1500 м
[Sc]
+20.8 +11.1 54 +23 +23 комфорт 1011.3 1009.5
21 12.08 ЮВ 3 60 км 10/9 1500 м
[Sc]
+19.9 +11.6 59 +22 +22 комфорт 1010.9 1009.1
22 12.08 ЮВ 3 60 км 10/5 1500 м
[Sc Ac As]
+19.6 +11.5 59 +21 +21 комфорт 1010.5 1008.7
23 12.08 ЮВ 2 60 км 10/4 2000 м
[Sc Ac As]
+19.2 +11.4 61 +21 +21 комфорт 1010.2 1008.4
00 13.08 В 1 60 км 9/0
[Ac As Ci sp]
+18.1 +11.5 65 +19 +19 тепло 1009.8 1008.0
01 13.08 В 2 60 км 10/0
[Ac As]
+18.1 +11.7 66 +19 +19 тепло 1009.2 1007.4
02 13.08 ЮВ 2 60 км 10/0
[Ac As]
+17.9 +11.6 67 +18 +18 тепло 1008.6 1006.8
03 13.08 ЮВ 2 60 км в посл. час дождь 9/0
[Ac As]
+17.6 +11.3 67 +18 +18 тепло 1008.1 1006.3 0.0
04 13.08 В 1 60 км в посл. час дождь 9/0
[Ac As]
+17.9 +11.3 65 +19 +19 тепло 1007.8 1006.0
05 13.08 В 2 60 км в посл. час дождь 9/0
[Ac As]
+17.9 +11.5 66 +18 +19 тепло 1007.4 1005.6
06 13.08 В 2 60 км {дождь} 9/0
[Ac As]
+18.2 +11.6 65 +19 +20 тепло 1007.2 1005.4 +16.8 +21.8 0.0
07 13.08 ЮВ 3 60 км 9/0
[Ac As]
+19.9 +10.2 54 +22 +23 комфорт 1007.1 1005.3
08 13.08 В 2 60 км 9/3 1500 м
[Sc Ac As]
+20.6 +9.2 48 +23 +25 комфорт 1006.8 1005.1
09 13.08 В 2 60 км 9/0
[Ac As Ci sp]
+23.5 +8.6 39 +24 +30 комфорт 1006.5 1004.8
10 13.08 ЮВ 3 60 км 9/0
[Ac As]
+26.6 +7.7 30 +26 +30 жарко 1006.1 1004.4
11 13.08 Ю 5 60 км 9/0
[Ac As]
+27.0 +8.8 32 +27 +30 жарко 1005.6 1003.9
12 13.08 Ю 8 60 км 9/0
[Ac As]
+27.4 +7.4 28 +27 +28 жарко 1005.2 1003.5
13 13.08 ЮЗ 6 60 км 9/0
[Ac As]
+25.3 +9.0 36 +26 +28 жарко 1005.4 1003.7
14 13.08 ЮЗ 5 50 км 9/9 2000 м
[Sc]
+24.1 +11.0 44 +25 +26 комфорт 1005.5 1003.8
15 13.08 ЮЗ 5 25 км слабый дождь 10/5 1050 м
[Sc Ac As]
+21.6 +14.5 64 +25 +25 комфорт 1005.6 1003.9 0.1
16 13.08 Ю 1 50 км в посл. час дождь 9/9 1500 м
[Sc]
+22.6 +14.8 61 +26 +27 жарко 1004.8 1003.1
17 13.08 ЮВ 5 50 км в посл. час дождь 9/3 2000 м
[Sc Ac As]
+22.2 +14.7 62 +26 +26 душно 1004.6 1002.9
18 13.08 Ю 4 25 км слабый ливневой дождь 9/8 1000 м
[Cb cap Ac As]
+20.6 +15.8 74 +24 +24 комфорт 1004.7 1003.0 +18.3 +28.1 0.5
19 13.08 ЮЗ 2 30 км в посл. час ливневой дождь 9/9 330 м
[Cb cap]
+18.3 +16.9 92 +19 +19 тепло 1005.3 1003.5
20 13.08 ЮЗ 2 40 км 9/0
[Ac As]
+17.5 +15.5 88 +18 +18 по сезону 1005.3 1003.5
21 13.08 ЮЗ 3 40 км {ливн. осадки, дождь} 6/1 960 м
[Sc Ac trans Ci fib]
+16.4 +14.9 91 +16 +16 по сезону 1005.6 1003.8 1
22 13.08 Ю 4 30 км 6/1 630 м
[Sc Ac trans Ci fib]
+15.5 +14.2 92 +14 +14 по сезону 1005.7 1003.9
23 13.08 ЮЗ 4 13 км 9/6 240 м
[St Ac trans]
+16.4 +15.0 91 +16 +16 тепло 1006.1 1004.3
00 14.08 ЮЗ 5 7000 м дымка {ливн. осадки, дождь} 9/9 200 м
[St]
+16.9 +15.2 90 +16 +16 по сезону 1006.3 1004.5 1
01 14.08 ЮЗ 4 6000 м 9/9 270 м
[Sc]
+16.4 +15.0 91 +16 +16 тепло 1006.2 1004.4
02 14.08 ЮЗ 4 7000 м дымка 9/9 240 м
[St]
+16.8 +15.1 90 +16 +16 тепло 1006.0 1004.2
03 14.08 ЮЗ 5 8000 м в посл. час дождь 9/9 240 м
[St]
+16.9 +15.1 89 +16 +16 по сезону 1006.1 1004.3 0.0
04 14.08 ЮЗ 5 8000 м в посл. час дождь 9/9 240 м
[St]
+16.9 +15.0 89 +16 +16 тепло 1006.4 1004.6
05 14.08 ЮЗ 4 9000 м слабая морось 10/9 240 м
[St]
+17.0 +15.1 89 +17 +17 тепло 1006.6 1004.8
06 14.08 ЮЗ 5 12 км в посл. час морось {дождь} 10/10 200 м
[Sc]
+17.2 +14.8 86 +17 +17 тепло 1007.1 1005.3 +15.5 +20.5 1
07 14.08 ЮЗ 5 12 км 9/9 300 м
[Sc]
+17.6 +14.9 84 +17 +17 по сезону 1007.6 1005.8
08 14.08 ЮЗ 5 15 км 9/9 360 м
[Cu Sc]
+18.4 +14.9 80 +19 +19 по сезону 1007.9 1006.1
09 14.08 З 5 25 км 9/9 300 м
[Cu Sc]
+18.8 +14.7 77 +19 +20 по сезону 1008.2 1006.4
10 14.08 ЮЗ 4 30 км в посл. час ливневой дождь 9/9 500 м
[Cu Sc]
+19.7 +15.6 77 +22 +23 комфорт 1008.4 1006.6
11 14.08 З 5 35 км слабый ливневой дождь 9/9 660 м
[Cb calv]
+20.5 +15.0 71 +23 +24 комфорт 1008.5 1006.8
12 14.08 ЮЗ 3 40 км в посл. час ливневой дождь 5/5 540 м
[Cb cap]
+20.0 +17.0 83 +23 +28 комфорт 1008.9 1007.2 0.9
13 14.08 З 3 40 км в посл. час ливневой дождь 4/4 360 м
[Cb cap]
+20.9 +17.3 80 +25 +31 комфорт 1009.1 1007.4
14 14.08 З 7 60 км 4/4 870 м
[Cu med, cong Ci fib]
+22.9 +15.5 63 +27 +29 душно 1009.4 1007.7
15 14.08 З 9 60 км 3/3 900 м
[Cu med, cong Ci fib]
+22.7 +14.2 59 +26 +27 жарко 1010.1 1008.4 2
16 14.08 З 9 60 км 4/3 900 м
[Cu med, cong Ac trans Ci fib]
+22.1 +13.8 59 +25 +25 комфорт 1010.8 1009.1
17 14.08 З 7 60 км 9/4 700 м
[Cu med, cong Ac trans]
+20.7 +14.9 69 +23 +23 комфорт 1011.3 1009.6
18 14.08 З 6 60 км {ливн. осадки} 9/8 600 м
[Cu Sc Ac trans Ci fib]
+20.1 +15.1 73 +22 +22 комфорт 1011.9 1010.1 +17.2 +23.2 3
19 14.08 З 5 10 км слабый ливневой дождь 10/9 210 м
[Cb cap]
+18.2 +16.2 88 +18 +18 по сезону 1012.8 1011.0
20 14.08 З 5 25 км в посл. час ливневой дождь 9/9 270 м
[Sc]
+17.6 +15.9 90 +17 +17 по сезону 1013.5 1011.7
21 14.08 З 5 30 км {ливн. осадки} 9/9 450 м
[Cu Sc]
+17.5 +15.4 87 +17 +17 по сезону 1014.0 1012.2 0.3
22 14.08 З 4 30 км 9/9 500 м
[Cu Sc]
+17.2 +15.0 87 +17 +17 тепло 1014.4 1012.6
23 14.08 З 4 35 км 9/9 660 м
[Cu Sc]
+16.8 +13.9 83 +16 +16 тепло 1015.1 1013.3
00 15.08 З 3 35 км {ливн. осадки} 9/0
[Ac trans]
+16.5 +13.4 82 +16 +16 по сезону 1015.5 1013.7 0.3
01 15.08 З 2 35 км 9/0
[Ac As]
+15.9 +13.3 85 +16 +16 тепло 1015.6 1013.8
02 15.08 ЮЗ 3 30 км 9/0
[Ac trans]
+15.6 +13.6 88 +15 +15 по сезону 1015.6 1013.8
03 15.08 З 2 30 км 8/1 570 м
[Cu hum Ac trans]
+15.5 +13.7 89 +15 +15 по сезону 1015.6 1013.8
04 15.08 ЮЗ 2 30 км 9/9 750 м
[Cu Sc]
+15.5 +13.9 90 +15 +15 тепло 1015.8 1014.0

 

Местоположение метеостанции Hamburg (Германия): широта 53.63 долгота 10.00 высота над уровнем моря 16 м.

В архиве по умолчанию представлена погода в Hamburg за последнюю неделю. Архивные данные за месяц целиком и за предыдущие месяцы, начиная с января 2011 года, Вы можете получить, выбрав интересующий диапазон дат из раскрывающегося списка и нажав кнопку "Ввод!".


*Определитесь, кто Вы:
робот инопланетянин человек

Внимание! Время в таблицах - всемирное. Для получения местного времени необходимо прибавить поправку, которая в Hamburg равна 1 ч.

Смотрите также архив погоды в соседних городах и на ближайших метеорологических станциях:

Погода в Quickborn (Германия) (14 км)
Погода в Itzehoe (Германия) (48 км)
Погода в Luebeck-Blankensee (Германия) (51 км)
Погода в Boizenburg (Германия) (52 км)
Погода в Bremervoerde (Германия) (57 км)
Погода в Doernick (Германия) (64 км)
Погода в Soltau (Германия) (71 км)
Погода в Pelzerhaken (Германия) (76 км)
Погода в Fassberg (Германия) (80 км)
Погода в Elpersbuettel (Германия) (81 км)

Пояснения к столбцам:

Ветер - указаны скорость ветра в м/с - средняя за 10 мин, порывы в срок и между сроками (в фигурных скобках) и направление, откуда дует ветер: С - северный, СВ - северо-восточный, В - восточный, ЮВ - юго-восточный, Ю - южный, ЮЗ - юго-западный, З - западный, СЗ - северо-западный.
Видимость - горизонтальная дальность видимости в метрах или километрах. При видимости от 1 до 10 км при отсутствии осадков обычно наблюдается дымка, при ухудшении видимости до 1 км и менее - туман. В сухую погоду видимость может ухудшаться дымом, пылью или мглою.
Явления - указаны атмосферные явления, наблюдавшиеся в срок или в последний час перед сроком; фигурными скобками обозначены явления, наблюдавшиеся между сроками (за 1-3 часа до срока); квадратными скобками обозначены град или гололедные отложения с указанием их диаметра в мм.
Облачность - указаны через наклонную черту общая и нижняя облачность в баллах и высота нижней границы облаков в метрах; квадратными скобками обозначены формы облаков: Ci - перистые, Cs - перисто-слоистые, Cc - перисто-кучевые, Ac - высококучевые, As - высокослоистые, Sc - слоисто-кучевые, Ns - слоисто-дождевые, Cu - кучевые, Cb - кучево-дождевые. Подробнее классификацию облаков см. в Атласе облаков (PDF).
T - Температура воздуха - температура, измеренная на высоте 2 м над землей.
Td - Температура точки росы - температура, при понижении до которой содержащийся в воздухе водяной пар достигнет насыщения.
f - Относительная влажность воздуха - влажноcть воздуха, измеренная на высоте 2 м над землей.
Te - Эффективная температура - температура, которую ощущает одетый по сезону человек в тени. Характеристика душности погоды. При расчете учитывается влияние влажности воздуха и скорости ветра на теплоощущения человека.
Tes - Эффективная температура на солнце - температура, которую ощущает человек, с поправкой на солнечный нагрев. Характеристика знойности погоды. Зависит от высоты солнца над горизонтом, облачности и скорости ветра. Ночью, в пасмурную погоду, а также при ветре 12 м/с и более поправка равна нулю.
P - Атмосферное давление - приведенное к уровню моря атмосферное давление.
Po - Атмосферное давление - измеренное на уровне метеостанции атмосферное давление.
Tmin - Минимальная температура - минимум температуры воздуха на высоте 2 м над землей.
Tmax - Максимальная температура - максимум температуры воздуха на высоте 2 м над землей.
R - Количество осадков - Количество выпавших осадков за период времени, мм. При наведении курсора мыши на число - период времени, за который выпало указанное количество осадков.
R24 - Количество осадков - Количество выпавших осадков за 24 часа, мм.
S - Снежный покров - Высота снежного покрова, см. При наведении курсора мыши на число - состояние снежного покрова и степень покрытия местности в баллах.